This demonstration page uses our WeatherBlox Daily Observations layout. Learn more.

Left ArrowRight Arrow

44.89941, -97.11507

Hourly Observations for April 13, 2016

Temp ( °F °C ) Dew Point ( °F °C ) Humidity (%) Winds ( mph kmh ) Pressure ( in mb ) Visibility ( mi km ) Precip ( " mm )
12:53 am 00:53 Clear 41 5 26 -3.3 55 55 ENE 6 9 29.94 1014 10 16 0.00 0.00
1:53 am 01:53 Clear 38 3.3 24 -4.4 57 57 ENE 7 11 29.94 1014 10 16 0.00 0.00
2:53 am 02:53 Clear 33 0.6 25 -3.9 72 72 NNE 6 9 29.94 1014 10 16 0.00 0.00
3:53 am 03:53 Clear 30 -1.1 25 -3.9 82 82 N 8 13 29.96 1015 10 16 0.00 0.00
4:53 am 04:53 Clear 32 0 27 -2.8 82 82 NNE 6 9 29.97 1015 10 16 0.00 0.00
5:53 am 05:53 Clear 30 -1.1 25 -3.9 82 82 N 6 9 29.99 1016 10 16 0.00 0.00
6:53 am 06:53 Sunny 29 -1.7 24 -4.4 82 82 NNE 8 13 30.02 1017 10 16 0.00 0.00
7:53 am 07:53 Sunny 34 1.1 28 -2.2 79 79 NE 5 7 30.03 1017 10 16 0.00 0.00
8:53 am 08:53 Sunny 41 5 31 -0.6 67 67 NE 6 9 30.03 1017 10 16 0.00 0.00
9:53 am 09:53 Sunny 50 10 33 0.6 52 52 NE 7 11 30.04 1017 10 16 0.00 0.00
10:53 am 10:53 Sunny 58 14.4 33 0.6 39 39 NE 12 19 30.04 1017 10 16 0.00 0.00
11:53 am 11:53 Sunny 60 15.6 33 0.6 36 36 E 10 17 30.02 1017 10 16 0.00 0.00
12:53 pm 12:53 Sunny 63 17.2 34 1.1 34 34 ENE 13 20 30.02 1017 10 16 0.00 0.00
1:53 pm 13:53 Sunny 64 17.8 34 1.1 33 33 E 10 17 30.00 1016 10 16 0.00 0.00
2:53 pm 14:53 Sunny 67 19.4 35 1.7 31 31 NE 7 11 30.00 1016 10 16 0.00 0.00
3:53 pm 15:53 Sunny 68 20 35 1.7 30 30 S 9 15 29.98 1015 10 16 0.00 0.00
4:53 pm 16:53 Sunny 69 20.6 34 1.1 27 27 ESE 8 13 29.96 1015 10 16 0.00 0.00
5:53 pm 17:53 Sunny 69 20.6 34 1.1 27 27 SE 8 13 29.96 1015 10 16 0.00 0.00
6:53 pm 18:53 Sunny 69 20.6 35 1.7 29 29 E 5 7 29.94 1014 10 16 0.00 0.00
7:53 pm 19:53 Sunny 66 18.9 35 1.7 32 32 E 7 11 29.93 1014 10 16 0.00 0.00
8:53 pm 20:53 Clear 62 16.7 34 1.1 35 35 E 8 13 29.92 1013 10 16 0.00 0.00
9:53 pm 21:53 Clear 59 15 34 1.1 39 39 E 6 9 29.91 1013 10 16 0.00 0.00
10:53 pm 22:53 Clear 58 14.4 34 1.1 41 41 ESE 7 11 29.90 1012 10 16 0.00 0.00
11:53 pm 23:53 Clear 59 15 35 1.7 41 41 ESE 7 11 29.88 1012 10 16 0.00 0.00

Powered by AerisWeather